Location: Cardiff
(53.7833°N, 113.6000°W)
Time: 07:55:08
(UTC+00:00)

RS-15 - Pass Details

Date: 03 December 2023
Orbit: 1893 x 2151 km, 64.8° (Epoch: 21 February)

Event Time Altitude Azimuth Distance (km) Brightness Sun altitude
Exits shadow 10:10:54 52° 358° (N) 2,381 8.3 -45.4°
Maximum altitude 10:12:10 54° 18° (NNE) 2,332 8.4 -45.2°
Drops below altitude 10° 10:23:06 10° 95° (E) 4,341 10.3 -43.8°
Sets 10:26:28 0° 100° (E) 5,315 10.9 -43.4°
